Provo, UT

12:43 PM MDT on September 28, 2016 (GMT -0600)
Provo Municipal

Weather History for KPVU - February, 2013

Change the Weather History Date:

Sunday, February 17, 2013

  Actual Average Record
Temperature  
Mean Temperature 26 °F -  
Max Temperature 35 °F 40 °F 53 °F (1983)
Min Temperature 17 °F 25 °F 0 °F (1989)
Degree Days  
Heating Degree Days 39    
Moisture  
Dew Point 20 °F    
Average Humidity 84    
Maximum Humidity 100    
Minimum Humidity 60    
Precipitation  
Precipitation 0.00 in - - ()
Sea Level Pressure  
Sea Level Pressure 29.99 in    
Wind  
Wind Speed 3 mph (NW)    
Max Wind Speed 21 mph    
Max Gust Speed -    
Visibility 8 miles    
Events Fog    
Averages and records for this station are not official NWS values.
T = Trace of Precipitation, MM = Missing Value Source: NWS Daily Summary

Daily Weather History Graph

Daily Weather History Graph

Search for Another Location

Airport or City:

Trip Planner

Search our weather history database for the weather conditions in past years. The results will help you decide how hot, cold, wet, or windy it might be!

Date:

Astronomy

Feb. 17, 2013 Rise Set
Actual Time 7:17 AM MST 6:05 PM MST
Civil Twilight 6:49 AM MST 6:33 PM MST
Nautical Twilight 6:17 AM MST 7:04 PM MST
Astronomical Twilight 5:46 AM MST 7:36 PM MST
Moon 11:11 AM MST (2/17) 1:04 AM MST (2/17)
Length of Visible Light 11h 43m
Length of Day
10h 48m
Waxing Crescent, 49% of the Moon is Illuminated
Feb 17
Waxing Crescent
Feb 17
First Quarter
Feb 25
Full
Mar 4
Last Quarter
Mar 11
New

Hourly Weather History & Observations

Time (MST) Temp. Windchill Dew Point Humidity Pressure Visibility Wind Dir Wind Speed Gust Speed Precip Events Conditions
12:15 AM 17.6 °F - 14.0 °F 86% 30.06 in 9.0 mi Calm Calm - N/A   Clear
12:35 AM 17.6 °F - 15.8 °F 93% 30.05 in 9.0 mi Calm Calm - N/A   Clear
12:55 AM 19.4 °F - 17.6 °F 93% 30.04 in 10.0 mi Calm Calm - N/A   Clear
1:15 AM 21.2 °F - 19.4 °F 93% 30.03 in 10.0 mi Calm Calm - N/A   Clear
1:35 AM 19.4 °F - 17.6 °F 93% 30.02 in 10.0 mi Calm Calm - N/A   Clear
1:55 AM 17.6 °F - 15.8 °F 93% 30.01 in 8.0 mi Calm Calm - N/A   Clear
2:15 AM 19.4 °F - 15.8 °F 86% 30.01 in 10.0 mi Calm Calm - N/A   Clear
2:35 AM 17.6 °F - 17.6 °F 100% 30.00 in 10.0 mi Calm Calm - N/A   Clear
2:55 AM 17.6 °F 10.7 °F 15.8 °F 93% 29.99 in 8.0 mi NW 4.6 mph - N/A   Clear
3:15 AM 19.4 °F - 17.6 °F 93% 29.97 in 6.0 mi Calm Calm - N/A   Clear
3:35 AM 17.6 °F 12.3 °F 15.8 °F 93% 29.96 in 8.0 mi West 3.5 mph - N/A   Clear
3:55 AM 19.4 °F 11.5 °F 15.8 °F 86% 29.96 in 8.0 mi West 5.8 mph - N/A   Clear
4:15 AM 19.4 °F 11.5 °F 19.4 °F 100% 29.95 in 7.0 mi NNE 5.8 mph - N/A   Clear
4:35 AM 21.2 °F - 17.6 °F 86% 29.94 in 8.0 mi Calm Calm - N/A   Clear
4:55 AM 21.2 °F - 17.6 °F 86% 29.93 in 8.0 mi Calm Calm - N/A   Clear
5:15 AM 21.2 °F 16.4 °F 19.4 °F 93% 29.91 in 7.0 mi East 3.5 mph - N/A   Clear
5:35 AM 19.4 °F - 17.6 °F 93% 29.91 in 7.0 mi Calm Calm - N/A   Clear
5:55 AM 21.2 °F 14.9 °F 17.6 °F 86% 29.91 in 7.0 mi NW 4.6 mph - N/A   Clear
6:15 AM 21.2 °F 16.4 °F 21.2 °F 100% 29.90 in 9.0 mi NNE 3.5 mph - N/A   Clear
6:35 AM 24.8 °F 20.5 °F 21.2 °F 86% 29.89 in 10.0 mi East 3.5 mph - N/A   Clear
6:48 AM 24.8 °F - 21.2 °F 86% 29.88 in 10.0 mi Calm Calm - N/A   Mostly Cloudy
7:49 AM 24.8 °F 12.9 °F 23.0 °F 93% 29.90 in 1.5 mi NW 13.8 mph - N/A Fog Light Freezing Fog
8:50 AM 26.6 °F 16.8 °F 23.0 °F 86% 29.91 in 1.8 mi NW 10.4 mph - N/A Fog Light Freezing Fog
9:49 AM 28.4 °F 19.1 °F 24.8 °F 86% 29.92 in 2.5 mi NW 10.4 mph - N/A Fog Light Freezing Fog
10:53 AM 30.2 °F 26.7 °F 26.6 °F 86% 29.93 in 2.0 mi Variable 3.5 mph - N/A   Haze
11:55 AM 33.8 °F 28.6 °F 26.6 °F 75% 29.93 in 3.0 mi Variable 5.8 mph - N/A   Haze
12:55 PM 35.6 °F 27.1 °F 28.4 °F 75% 29.92 in 5.0 mi NW 12.7 mph - N/A   Haze
1:50 PM 33.8 °F 22.2 °F 28.4 °F 81% 29.91 in 6.0 mi WNW 20.7 mph - N/A   Overcast
2:50 PM 33.8 °F 24.3 °F 28.4 °F 81% 29.92 in 7.0 mi WNW 13.8 mph - N/A   Overcast
3:50 PM 33.8 °F 23.5 °F 24.8 °F 70% 29.94 in 7.0 mi NW 16.1 mph - N/A   Mostly Cloudy
4:50 PM 33.8 °F 23.5 °F 21.2 °F 60% 29.97 in 8.0 mi NW 16.1 mph - N/A   Scattered Clouds
6:50 PM 28.4 °F 17.5 °F 19.4 °F 69% 30.01 in 15.0 mi WNW 13.8 mph - N/A   Scattered Clouds
7:50 PM 30.2 °F 19.8 °F 21.2 °F 69% 30.04 in 15.0 mi NW 13.8 mph - N/A   Scattered Clouds
8:50 PM 28.4 °F 18.5 °F 19.4 °F 69% 30.05 in 15.0 mi NNW 11.5 mph - N/A   Scattered Clouds
9:15 PM 28.4 °F 23.3 °F 17.6 °F 64% 30.06 in 10.0 mi NNW 4.6 mph - N/A   Clear
9:35 PM 28.4 °F - 17.6 °F 64% 30.06 in 10.0 mi Calm Calm - N/A   Clear
9:55 PM 28.4 °F - 17.6 °F 64% 30.07 in 10.0 mi Calm Calm - N/A   Clear
10:15 PM 24.8 °F 16.9 °F 17.6 °F 74% 30.08 in 10.0 mi South 6.9 mph - N/A   Clear
10:35 PM 19.4 °F 14.3 °F 15.8 °F 86% 30.09 in 10.0 mi SSE 3.5 mph - N/A   Clear
10:55 PM 21.2 °F - 17.6 °F 86% 30.09 in 10.0 mi Calm Calm - N/A   Clear
11:15 PM 21.2 °F 13.6 °F 17.6 °F 86% 30.10 in 10.0 mi ESE 5.8 mph - N/A   Clear
11:35 PM 21.2 °F 14.9 °F 17.6 °F 86% 30.10 in 10.0 mi SE 4.6 mph - N/A   Clear
11:55 PM 19.4 °F 12.8 °F 17.6 °F 93% 30.10 in 10.0 mi West 4.6 mph - N/A   Clear